Find Starlink 30980

NORAD ID: 58476 Int'l Des: 2023-186 Owner: SPXS Country: US Constellation: starlink operational
LEOCIRCULAR

Current View

Loading 3D Globe...

About Starlink 30980

Starlink 30980 (NORAD 58476) is a starlink constellation satellite (v2 mini) launched Dec 3, 2023 by SPXS of US. It operates in LEO, CIRCULAR orbit with a mass of 730.00 kg.

About Starlink 30980

Description loading...

Upcoming Passes

Passes for default location (London). Set your location on the main map for personalized predictions.

Altitude History

Loading altitude history...

Two-Line Element Set

1 58476U 23186D 26166.90016456 .00013860 00000-0 51252-3 0 9998
2 58476 43.0011 232.6381 0000686 277.9636 82.1138 15.27561416140877
Epoch: Jun 15, 2026 • Age: 23 hours

Current Status

Altitude 495.9 km
Velocity 7.62 km/s
Sub-Earth Point -43.15°S, 80.29°W
Launch Date Dec 3, 2023
Age 2.5 years
Type internet

Technical Details

Classification Payload
Mass 730.00 kg
Dry Mass 700.00 kg
Total Mass 730.00 kg
Length 0.30 m
Diameter 4.10 m
Span 29.00 m
Shape Box + pan
Manufacturer SPXS
Bus Type Starlink V2M
Phase Status In Orbit
Owner/State SPXS/US

Most Searched